Time,TemperatureF,DewpointF,PressureIn,WindDirection,WindDirectionDegrees,WindSpeedMPH,WindSpeedGustMPH,Humidity,HourlyPrecipIn,Conditions,Clouds,dailyrainin,SoftwareType,DateUTC
2013-03-15 00:00:00,0.0,-69.2,30.09,South,178,4.6,4.6,2,0.00,CLR,,0.00,WeatherDisplay:10.37,2013-03-15 07:00:00,
2013-03-15 00:05:00,0.0,-69.2,30.09,South,181,2.3,2.3,2,0.00,CLR,,0.00,WeatherDisplay:10.37,2013-03-15 07:05:00,
2013-03-15 00:10:00,0.0,-69.2,30.09,SSE,158,3.9,3.9,2,0.00,CLR,,0.00,WeatherDisplay:10.37,2013-03-15 07:10:00,
2013-03-15 00:15:00,0.0,-69.2,30.09,South,191,2.9,2.9,2,0.00,CLR,,0.00,WeatherDisplay:10.37,2013-03-15 07:15:00,
2013-03-15 00:20:00,0.0,-69.2,30.09,SSE,158,1.2,1.2,2,0.00,CLR,,0.00,WeatherDisplay:10.37,2013-03-15 07:20:00,
2013-03-15 00:25:00,0.0,-69.2,30.09,SE,137,2.2,2.2,2,0.00,CLR,,0.00,WeatherDisplay:10.37,2013-03-15 07:25:00,
2013-03-15 00:30:00,0.0,-69.2,30.09,South,175,3.5,3.5,2,0.00,CLR,,0.00,WeatherDisplay:10.37,2013-03-15 07:30:00,
2013-03-15 00:35:00,0.0,-69.2,30.09,South,175,0.0,0.0,2,0.00,CLR,,0.00,WeatherDisplay:10.37,2013-03-15 07:35:00,
2013-03-15 00:40:00,0.0,-69.2,30.10,SSW,196,4.6,4.6,2,0.00,CLR,,0.00,WeatherDisplay:10.37,2013-03-15 07:40:00,
2013-03-15 00:45:00,0.0,-69.2,30.10,SSW,192,3.5,3.5,2,0.00,CLR,,0.00,WeatherDisplay:10.37,2013-03-15 07:45:00,
2013-03-15 00:50:00,0.0,-69.2,30.10,South,184,3.5,3.5,2,0.00,CLR,,0.00,WeatherDisplay:10.37,2013-03-15 07:50:00,
2013-03-15 00:55:00,0.0,-69.2,30.10,SSW,208,3.4,3.4,2,0.00,CLR,,0.00,WeatherDisplay:10.37,2013-03-15 07:55:00,
2013-03-15 01:00:00,0.0,-69.2,30.09,SSW,195,3.2,3.2,2,0.00,CLR,,0.00,WeatherDisplay:10.37,2013-03-15 08:00:00,
2013-03-15 01:05:00,0.0,-69.2,30.10,West,265,4.6,4.6,2,0.00,CLR,,0.00,WeatherDisplay:10.37,2013-03-15 08:05:00,
2013-03-15 01:10:00,0.0,-69.2,30.10,SSW,192,0.0,0.0,2,0.00,CLR,,0.00,WeatherDisplay:10.37,2013-03-15 08:10:00,
2013-03-15 01:15:00,0.0,-69.2,30.09,SSW,208,0.0,0.0,2,0.00,CLR,,0.00,WeatherDisplay:10.37,2013-03-15 08:15:00,
2013-03-15 01:20:00,0.0,-69.2,30.09,SSW,208,0.0,0.0,2,0.00,CLR,,0.00,WeatherDisplay:10.37,2013-03-15 08:20:00,
2013-03-15 01:25:00,0.0,-69.2,30.09,SSW,208,0.0,0.0,2,0.00,CLR,,0.00,WeatherDisplay:10.37,2013-03-15 08:25:00,
2013-03-15 01:30:00,0.0,-69.2,30.09,SSE,160,2.3,2.3,2,0.00,CLR,,0.00,WeatherDisplay:10.37,2013-03-15 08:30:00,
2013-03-15 01:35:00,0.0,-69.2,30.09,SSW,200,3.5,3.5,2,0.00,CLR,,0.00,WeatherDisplay:10.37,2013-03-15 08:35:00,
2013-03-15 01:40:00,0.0,-69.2,30.10,South,172,2.3,0.0,2,0.00,CLR,,0.00,WeatherDisplay:10.37,2013-03-15 08:40:00,
2013-03-15 01:45:00,0.0,-69.2,30.10,South,189,0.0,0.0,2,0.00,CLR,,0.00,WeatherDisplay:10.37,2013-03-15 08:45:00,
2013-03-15 01:50:00,0.0,-69.2,30.10,SSW,206,3.5,3.5,2,0.00,CLR,,0.00,WeatherDisplay:10.37,2013-03-15 08:50:00,
2013-03-15 01:55:00,0.0,-69.2,30.10,SSW,202,2.5,2.5,2,0.00,CLR,,0.00,WeatherDisplay:10.37,2013-03-15 08:55:00,
2013-03-15 02:00:00,0.0,-69.2,30.10,SSE,168,2.3,2.3,2,0.00,CLR,,0.00,WeatherDisplay:10.37,2013-03-15 09:00:00,
2013-03-15 02:05:00,0.0,-69.2,30.10,SSW,200,0.0,0.0,2,0.00,CLR,,0.00,WeatherDisplay:10.37,2013-03-15 09:05:00,
2013-03-15 02:10:00,0.0,-69.2,30.10,SSE,168,2.2,2.2,2,0.00,CLR,,0.00,WeatherDisplay:10.37,2013-03-15 09:10:00,
2013-03-15 02:15:00,0.0,-69.2,30.10,SSW,196,3.9,3.9,2,0.00,CLR,,0.00,WeatherDisplay:10.37,2013-03-15 09:15:00,
2013-03-15 02:20:00,0.0,-69.2,30.10,South,172,3.5,3.5,2,0.00,CLR,,0.00,WeatherDisplay:10.37,2013-03-15 09:20:00,
2013-03-15 02:25:00,0.0,-69.2,30.10,South,172,2.3,2.3,2,0.00,CLR,,0.00,WeatherDisplay:10.37,2013-03-15 09:25:00,
2013-03-15 02:30:00,0.0,-69.2,30.09,SSW,198,0.0,0.0,2,0.00,CLR,,0.00,WeatherDisplay:10.37,2013-03-15 09:30:00,
2013-03-15 02:35:00,0.0,-69.2,30.10,SSE,164,3.5,3.5,2,0.00,CLR,,0.00,WeatherDisplay:10.37,2013-03-15 09:35:00,
2013-03-15 02:40:00,0.0,-69.2,30.09,SSE,168,2.3,2.3,2,0.00,CLR,,0.00,WeatherDisplay:10.37,2013-03-15 09:40:00,
2013-03-15 02:45:00,0.0,-69.2,30.10,SE,131,1.4,1.4,2,0.00,CLR,,0.00,WeatherDisplay:10.37,2013-03-15 09:45:00,
2013-03-15 02:50:00,0.0,-69.2,30.09,ESE,120,3.5,3.5,2,0.00,CLR,,0.00,WeatherDisplay:10.37,2013-03-15 09:50:00,
2013-03-15 02:55:00,0.0,-69.2,30.09,SE,135,0.0,2.0,2,0.00,CLR,CLR,0.00,WeatherDisplay:10.37,2013-03-15 09:55:00,
2013-03-15 03:00:00,0.0,-69.2,30.09,SE,126,0.0,0.0,2,0.00,CLR,,0.00,WeatherDisplay:10.37,2013-03-15 10:00:00,
2013-03-15 03:05:00,0.0,-69.2,30.10,SE,126,0.0,0.0,2,0.00,CLR,CLR,0.00,WeatherDisplay:10.37,2013-03-15 10:05:00,
2013-03-15 03:10:00,0.0,-69.2,30.10,SE,126,0.0,0.0,2,0.00,CLR,,0.00,WeatherDisplay:10.37,2013-03-15 10:10:00,
2013-03-15 03:15:00,0.0,-69.2,30.10,SE,126,0.0,0.0,2,0.00,CLR,,0.00,WeatherDisplay:10.37,2013-03-15 10:15:00,
2013-03-15 03:20:00,0.0,-69.2,30.09,ESE,114,1.2,1.2,2,0.00,CLR,,0.00,WeatherDisplay:10.37,2013-03-15 10:20:00,
2013-03-15 03:25:00,0.0,-69.2,30.09,ESE,114,0.0,0.0,2,0.00,CLR,,0.00,WeatherDisplay:10.37,2013-03-15 10:25:00,
2013-03-15 03:30:00,0.0,-69.2,30.09,ESE,114,0.7,0.0,2,0.00,CLR,,0.00,WeatherDisplay:10.37,2013-03-15 10:30:00,
2013-03-15 03:35:00,0.0,-69.2,30.09,ESE,121,1.2,0.0,2,0.00,CLR,,0.00,WeatherDisplay:10.37,2013-03-15 10:35:00,
2013-03-15 03:40:00,0.0,-69.2,30.09,ESE,121,0.0,0.0,2,0.00,CLR,,0.00,WeatherDisplay:10.37,2013-03-15 10:40:00,
2013-03-15 03:45:00,0.0,-69.2,30.09,SSE,162,0.0,0.0,2,0.00,CLR,,0.00,WeatherDisplay:10.37,2013-03-15 10:45:00,
2013-03-15 03:50:00,0.0,-69.2,30.09,SSE,162,0.0,0.0,2,0.00,CLR,,0.00,WeatherDisplay:10.37,2013-03-15 10:50:00,
2013-03-15 03:55:00,0.0,-69.2,30.09,SSE,162,0.0,0.0,2,0.00,CLR,,0.00,WeatherDisplay:10.37,2013-03-15 10:55:00,
2013-03-15 04:00:00,0.0,-69.2,30.09,SSE,162,0.0,0.0,2,0.00,CLR,,0.00,WeatherDisplay:10.37,2013-03-15 11:00:00,
2013-03-15 04:05:00,0.0,-69.2,30.09,SSE,162,0.0,0.0,2,0.00,CLR,,0.00,WeatherDisplay:10.37,2013-03-15 11:05:00,
2013-03-15 04:10:00,0.0,-69.2,30.09,SSE,162,0.0,0.0,2,0.00,CLR,,0.00,WeatherDisplay:10.37,2013-03-15 11:10:00,
2013-03-15 04:15:00,0.0,-69.2,30.09,SSE,162,0.0,0.0,2,0.00,CLR,,0.00,WeatherDisplay:10.37,2013-03-15 11:15:00,
2013-03-15 04:20:00,0.0,-69.2,30.08,SSE,162,0.0,0.0,2,0.00,CLR,,0.00,WeatherDisplay:10.37,2013-03-15 11:20:00,
2013-03-15 04:25:00,0.0,-69.2,30.08,SSE,162,0.0,0.0,2,0.00,CLR,,0.00,WeatherDisplay:10.37,2013-03-15 11:25:00,
2013-03-15 04:30:00,0.0,-69.2,30.08,SSE,162,0.0,0.0,2,0.00,CLR,,0.00,WeatherDisplay:10.37,2013-03-15 11:30:00,
2013-03-15 04:35:00,0.0,-69.2,30.08,SSE,162,0.0,0.0,2,0.00,CLR,,0.00,WeatherDisplay:10.37,2013-03-15 11:35:00,
2013-03-15 04:40:00,0.0,-69.2,30.08,SSE,162,0.0,0.0,2,0.00,CLR,,0.00,WeatherDisplay:10.37,2013-03-15 11:40:00,
2013-03-15 04:45:00,0.0,-69.2,30.08,SSE,162,0.0,0.0,2,0.00,CLR,,0.00,WeatherDisplay:10.37,2013-03-15 11:45:00,
2013-03-15 04:50:00,0.0,-69.2,30.08,SSE,162,0.0,0.0,2,0.00,CLR,,0.00,WeatherDisplay:10.37,2013-03-15 11:50:00,
2013-03-15 04:55:00,0.0,-69.2,30.09,SSE,162,0.0,0.0,2,0.00,CLR,,0.00,WeatherDisplay:10.37,2013-03-15 11:55:00,
2013-03-15 05:00:00,0.0,-69.2,30.08,SSE,162,0.0,0.0,2,0.00,CLR,,0.00,WeatherDisplay:10.37,2013-03-15 12:00:00,
2013-03-15 05:05:00,0.0,-69.2,30.09,SSE,162,0.0,0.0,2,0.00,CLR,,0.00,WeatherDisplay:10.37,2013-03-15 12:05:00,
2013-03-15 05:10:00,0.0,-69.2,30.09,SSE,162,0.0,0.0,2,0.00,CLR,,0.00,WeatherDisplay:10.37,2013-03-15 12:10:00,
2013-03-15 05:15:00,0.0,-69.2,30.09,SSE,162,0.0,0.0,2,0.00,CLR,,0.00,WeatherDisplay:10.37,2013-03-15 12:15:00,
2013-03-15 05:20:00,0.0,-69.2,30.09,SSE,162,0.0,0.0,2,0.00,CLR,,0.00,WeatherDisplay:10.37,2013-03-15 12:20:00,
2013-03-15 05:25:00,0.0,-69.2,30.09,SSE,162,0.0,0.0,2,0.00,CLR,,0.00,WeatherDisplay:10.37,2013-03-15 12:25:00,
2013-03-15 05:30:00,0.0,-69.2,30.09,SSE,162,0.0,0.0,2,0.00,CLR,,0.00,WeatherDisplay:10.37,2013-03-15 12:30:00,
2013-03-15 05:35:00,0.0,-69.2,30.09,SSE,162,0.0,0.0,2,0.00,CLR,,0.00,WeatherDisplay:10.37,2013-03-15 12:35:00,
2013-03-15 05:40:00,0.0,-69.2,30.09,SSE,162,0.0,0.0,2,0.00,CLR,,0.00,WeatherDisplay:10.37,2013-03-15 12:40:00,
2013-03-15 05:45:00,0.0,-69.2,30.09,SSE,162,0.0,0.0,2,0.00,CLR,,0.00,WeatherDisplay:10.37,2013-03-15 12:45:00,
2013-03-15 05:50:00,0.0,-69.2,30.09,SSE,162,0.0,0.0,2,0.00,CLR,,0.00,WeatherDisplay:10.37,2013-03-15 12:50:00,
2013-03-15 05:55:00,0.0,-69.2,30.10,SSE,162,0.0,0.0,2,0.00,CLR,,0.00,WeatherDisplay:10.37,2013-03-15 12:55:00,
2013-03-15 06:00:00,0.0,-69.2,30.10,SSE,162,0.0,0.0,2,0.00,CLR,,0.00,WeatherDisplay:10.37,2013-03-15 13:00:00,
2013-03-15 06:05:00,0.0,-69.2,30.10,SSE,162,0.0,0.0,2,0.00,CLR,,0.00,WeatherDisplay:10.37,2013-03-15 13:05:00,
2013-03-15 06:10:00,0.0,-69.2,30.09,SSE,162,0.0,0.0,2,0.00,CLR,,0.00,WeatherDisplay:10.37,2013-03-15 13:10:00,
2013-03-15 06:15:00,0.0,-69.2,30.09,SSE,162,0.0,0.0,2,0.00,CLR,,0.00,WeatherDisplay:10.37,2013-03-15 13:15:00,
2013-03-15 06:20:00,0.0,-69.2,30.09,SSE,162,0.0,0.0,2,0.00,CLR,,0.00,WeatherDisplay:10.37,2013-03-15 13:20:00,
2013-03-15 06:25:00,0.0,-69.2,30.09,SSE,162,0.0,0.0,2,0.00,CLR,,0.00,WeatherDisplay:10.37,2013-03-15 13:25:00,
2013-03-15 06:30:00,0.0,-69.2,30.09,South,182,0.0,0.0,2,0.00,CLR,,0.00,WeatherDisplay:10.37,2013-03-15 13:30:00,
2013-03-15 06:35:00,0.0,-69.2,30.09,South,182,0.0,0.0,2,0.00,CLR,,0.00,WeatherDisplay:10.37,2013-03-15 13:35:00,
2013-03-15 06:40:00,0.0,-69.2,30.09,South,182,0.0,0.0,2,0.00,CLR,,0.00,WeatherDisplay:10.37,2013-03-15 13:40:00,
2013-03-15 06:45:00,0.0,-69.2,30.09,South,182,1.1,0.0,2,0.00,CLR,,0.00,WeatherDisplay:10.37,2013-03-15 13:45:00,
2013-03-15 06:50:00,0.0,-69.2,30.09,SSE,162,0.0,0.0,2,0.00,CLR,,0.00,WeatherDisplay:10.37,2013-03-15 13:50:00,
2013-03-15 06:55:00,0.0,-69.2,30.09,SSE,162,0.0,0.0,2,0.00,CLR,,0.00,WeatherDisplay:10.37,2013-03-15 13:55:00,
2013-03-15 07:00:00,0.0,-69.2,30.09,SSE,162,0.0,0.0,2,0.00,CLR,,0.00,WeatherDisplay:10.37,2013-03-15 14:00:00,
2013-03-15 07:05:00,0.0,-69.2,30.09,SSE,162,0.0,0.0,2,0.00,CLR,,0.00,WeatherDisplay:10.37,2013-03-15 14:05:00,
2013-03-15 07:10:00,0.0,-69.2,30.09,SSE,162,0.0,0.0,2,0.00,CLR,,0.00,WeatherDisplay:10.37,2013-03-15 14:10:00,
2013-03-15 07:15:00,0.0,-69.2,30.09,SSE,162,0.0,0.0,2,0.00,CLR,,0.00,WeatherDisplay:10.37,2013-03-15 14:15:00,
2013-03-15 07:20:00,0.0,-69.2,30.09,SSE,162,0.0,0.0,2,0.00,CLR,,0.00,WeatherDisplay:10.37,2013-03-15 14:20:00,
2013-03-15 07:25:00,0.0,-69.2,30.09,SSE,162,0.0,0.0,2,0.00,CLR,,0.00,WeatherDisplay:10.37,2013-03-15 14:25:00,
2013-03-15 07:30:00,0.0,-69.2,30.09,SSE,162,0.0,0.0,2,0.00,CLR,,0.00,WeatherDisplay:10.37,2013-03-15 14:30:00,
2013-03-15 07:35:00,0.0,-69.2,30.09,SE,141,3.5,3.5,2,0.00,CLR,,0.00,WeatherDisplay:10.37,2013-03-15 14:35:00,
2013-03-15 07:40:00,0.0,-69.2,30.09,SE,138,1.2,1.2,2,0.00,CLR,,0.00,WeatherDisplay:10.37,2013-03-15 14:40:00,
2013-03-15 07:45:00,0.0,-69.2,30.09,SE,144,2.3,2.3,2,0.00,CLR,,0.00,WeatherDisplay:10.37,2013-03-15 14:45:00,
2013-03-15 07:50:00,0.0,-69.2,30.09,SE,138,1.2,1.2,2,0.00,CLR,,0.00,WeatherDisplay:10.37,2013-03-15 14:50:00,
2013-03-15 07:55:00,0.0,-69.2,30.09,SSE,165,2.9,2.9,2,0.00,CLR,,0.00,WeatherDisplay:10.37,2013-03-15 14:55:00,
2013-03-15 08:00:00,0.0,-69.2,30.09,SE,145,3.5,3.5,2,0.00,CLR,,0.00,WeatherDisplay:10.37,2013-03-15 15:00:00,
2013-03-15 08:05:00,0.0,-69.2,30.09,SSE,165,4.6,4.6,2,0.00,CLR,,0.00,WeatherDisplay:10.37,2013-03-15 15:05:00,
2013-03-15 08:10:00,0.0,-69.2,30.09,SSE,165,0.0,0.0,2,0.00,CLR,,0.00,WeatherDisplay:10.37,2013-03-15 15:10:00,
2013-03-15 08:15:00,0.0,-69.2,30.09,South,172,0.0,0.1,2,0.00,CLR,,0.00,WeatherDisplay:10.37,2013-03-15 15:15:00,
2013-03-15 08:20:00,0.0,-69.2,30.09,SE,141,0.0,0.0,2,0.00,CLR,,0.00,WeatherDisplay:10.37,2013-03-15 15:20:00,
2013-03-15 08:25:00,0.0,-69.2,30.09,SE,141,0.0,0.0,2,0.00,CLR,,0.00,WeatherDisplay:10.37,2013-03-15 15:25:00,
2013-03-15 08:30:00,0.0,-69.2,30.09,SE,141,0.0,0.0,2,0.00,CLR,,0.00,WeatherDisplay:10.37,2013-03-15 15:30:00,
2013-03-15 08:35:00,0.0,-69.2,30.09,SE,141,0.0,0.0,2,0.00,CLR,,0.00,WeatherDisplay:10.37,2013-03-15 15:35:00,
2013-03-15 08:40:00,0.0,-69.2,30.09,SE,141,0.0,0.0,2,0.00,CLR,,0.00,WeatherDisplay:10.37,2013-03-15 15:40:00,
2013-03-15 08:45:00,0.0,-69.2,30.09,SE,141,0.0,0.0,2,0.00,CLR,,0.00,WeatherDisplay:10.37,2013-03-15 15:45:00,
2013-03-15 08:50:00,0.0,-69.2,30.09,SE,141,0.0,0.0,2,0.00,CLR,,0.00,WeatherDisplay:10.37,2013-03-15 15:50:00,
2013-03-15 08:55:00,0.0,-69.2,30.09,North,1,1.2,1.2,2,0.00,CLR,,0.00,WeatherDisplay:10.37,2013-03-15 15:55:00,
2013-03-15 09:00:00,0.0,-69.2,30.10,NNE,27,1.2,1.2,2,0.00,CLR,,0.00,WeatherDisplay:10.37,2013-03-15 16:00:00,
2013-03-15 09:05:00,0.0,-69.2,30.10,North,10,0.0,0.0,2,0.00,CLR,,0.00,WeatherDisplay:10.37,2013-03-15 16:05:00,
2013-03-15 09:10:00,0.0,-69.2,30.10,NW,319,0.0,0.0,2,0.00,CLR,,0.00,WeatherDisplay:10.37,2013-03-15 16:10:00,
2013-03-15 09:15:00,0.0,-69.2,30.10,South,174,2.3,2.3,2,0.00,CLR,,0.00,WeatherDisplay:10.37,2013-03-15 16:15:00,
2013-03-15 09:20:00,0.0,-69.2,30.10,South,174,0.0,0.0,2,0.00,CLR,,0.00,WeatherDisplay:10.37,2013-03-15 16:20:00,
2013-03-15 09:25:00,0.0,-69.2,30.10,WNW,282,0.0,0.0,2,0.00,CLR,,0.00,WeatherDisplay:10.37,2013-03-15 16:25:00,
2013-03-15 09:30:00,0.0,-69.2,30.10,SSW,200,2.3,2.3,2,0.00,CLR,,0.00,WeatherDisplay:10.37,2013-03-15 16:30:00,
2013-03-15 09:35:00,0.0,-69.2,30.10,SW,222,0.0,0.0,2,0.00,CLR,,0.00,WeatherDisplay:10.37,2013-03-15 16:35:00,
2013-03-15 09:40:00,0.0,-69.2,30.10,SSW,200,0.0,0.0,2,0.00,CLR,,0.00,WeatherDisplay:10.37,2013-03-15 16:40:00,
2013-03-15 09:45:00,0.0,-69.2,30.10,SE,126,3.5,3.5,2,0.00,CLR,,0.00,WeatherDisplay:10.37,2013-03-15 16:45:00,
2013-03-15 09:50:00,0.0,-69.2,30.10,ESE,119,1.2,1.2,2,0.00,CLR,,0.00,WeatherDisplay:10.37,2013-03-15 16:50:00,
2013-03-15 09:55:00,0.0,-69.2,30.10,SSW,195,4.6,4.6,2,0.00,CLR,,0.00,WeatherDisplay:10.37,2013-03-15 16:55:00,
2013-03-15 10:00:00,0.0,-69.2,30.10,South,189,4.8,4.8,2,0.00,CLR,,0.00,WeatherDisplay:10.37,2013-03-15 17:00:00,
2013-03-15 10:05:00,0.0,-69.2,30.10,SE,138,5.8,5.8,2,0.00,CLR,,0.00,WeatherDisplay:10.37,2013-03-15 17:05:00,
2013-03-15 10:10:00,0.0,-69.2,30.10,SSE,160,6.9,6.9,2,0.00,CLR,,0.00,WeatherDisplay:10.37,2013-03-15 17:10:00,
2013-03-15 10:15:00,0.0,-69.2,30.10,South,185,4.6,4.6,2,0.00,CLR,,0.00,WeatherDisplay:10.37,2013-03-15 17:15:00,
2013-03-15 10:20:00,0.0,-69.2,30.10,South,176,3.5,3.5,2,0.00,CLR,,0.00,WeatherDisplay:10.37,2013-03-15 17:20:00,
2013-03-15 10:25:00,0.0,-69.2,30.10,SSW,193,3.8,3.8,2,0.00,CLR,,0.00,WeatherDisplay:10.37,2013-03-15 17:25:00,
2013-03-15 10:30:00,0.0,-69.2,30.10,SSE,158,6.9,6.9,2,0.00,CLR,,0.00,WeatherDisplay:10.37,2013-03-15 17:30:00,
2013-03-15 10:35:00,0.0,-69.2,30.10,South,188,5.8,5.8,2,0.00,CLR,,0.00,WeatherDisplay:10.37,2013-03-15 17:35:00,
2013-03-15 10:40:00,0.0,-69.2,30.10,South,184,3.5,3.5,2,0.00,CLR,,0.00,WeatherDisplay:10.37,2013-03-15 17:40:00,
2013-03-15 10:45:00,0.0,-69.2,30.10,ESE,120,6.2,6.2,2,0.00,CLR,,0.00,WeatherDisplay:10.37,2013-03-15 17:45:00,
2013-03-15 10:50:00,0.0,-69.2,30.10,South,169,4.6,4.6,2,0.00,CLR,,0.00,WeatherDisplay:10.37,2013-03-15 17:50:00,
2013-03-15 10:55:00,0.0,-69.2,30.10,SSW,210,5.8,5.8,2,0.00,CLR,,0.00,WeatherDisplay:10.37,2013-03-15 17:55:00,
2013-03-15 11:00:00,0.0,-69.2,30.10,SSW,205,6.9,6.9,2,0.00,CLR,,0.00,WeatherDisplay:10.37,2013-03-15 18:00:00,
2013-03-15 11:05:00,0.0,-69.2,30.10,South,175,9.2,9.2,2,0.00,CLR,,0.00,WeatherDisplay:10.37,2013-03-15 18:05:00,
2013-03-15 11:10:00,0.0,-69.2,30.10,West,277,3.5,3.5,2,0.00,CLR,,0.00,WeatherDisplay:10.37,2013-03-15 18:10:00,
2013-03-15 11:15:00,0.0,-69.2,30.10,SSW,209,4.6,4.6,2,0.00,CLR,,0.00,WeatherDisplay:10.37,2013-03-15 18:15:00,
2013-03-15 11:20:00,0.0,-69.2,30.10,SSE,158,6.9,6.9,2,0.00,CLR,,0.00,WeatherDisplay:10.37,2013-03-15 18:20:00,
2013-03-15 11:25:00,0.0,-69.2,30.10,West,268,4.6,4.6,2,0.00,CLR,,0.00,WeatherDisplay:10.37,2013-03-15 18:25:00,
2013-03-15 11:30:00,0.0,-69.2,30.10,SSW,192,5.8,5.8,2,0.00,CLR,,0.00,WeatherDisplay:10.37,2013-03-15 18:30:00,
2013-03-15 11:35:00,0.0,-69.2,30.10,SW,227,2.3,2.3,2,0.00,CLR,,0.00,WeatherDisplay:10.37,2013-03-15 18:35:00,
2013-03-15 11:40:00,0.0,-69.2,30.10,South,182,4.6,4.6,2,0.00,CLR,,0.00,WeatherDisplay:10.37,2013-03-15 18:40:00,
2013-03-15 11:45:00,0.0,-69.2,30.10,SSW,196,4.6,4.6,2,0.00,CLR,,0.00,WeatherDisplay:10.37,2013-03-15 18:45:00,
2013-03-15 11:50:00,0.0,-69.2,30.10,South,171,5.8,5.8,2,0.00,CLR,,0.00,WeatherDisplay:10.37,2013-03-15 18:50:00,
2013-03-15 11:55:00,0.0,-69.2,30.10,South,191,4.9,4.9,2,0.00,CLR,,0.00,WeatherDisplay:10.37,2013-03-15 18:55:00,
2013-03-15 12:00:00,0.0,-69.2,30.10,South,188,4.7,4.7,2,0.00,CLR,,0.00,WeatherDisplay:10.37,2013-03-15 19:00:00,
2013-03-15 12:05:00,0.0,-69.2,30.10,South,188,8.1,8.1,2,0.00,CLR,,0.00,WeatherDisplay:10.37,2013-03-15 19:05:00,
2013-03-15 12:10:00,0.0,-69.2,30.10,SW,222,6.9,6.9,2,0.00,CLR,,0.00,WeatherDisplay:10.37,2013-03-15 19:10:00,
2013-03-15 12:15:00,0.0,-69.2,30.10,SSE,162,4.6,4.6,2,0.00,CLR,,0.00,WeatherDisplay:10.37,2013-03-15 19:15:00,
2013-03-15 12:20:00,0.0,-69.2,30.10,South,188,8.3,8.3,2,0.00,CLR,,0.00,WeatherDisplay:10.37,2013-03-15 19:20:00,
2013-03-15 12:25:00,0.0,-69.2,30.10,SE,143,4.6,4.6,2,0.00,CLR,,0.00,WeatherDisplay:10.37,2013-03-15 19:25:00,
2013-03-15 12:30:00,0.0,-69.2,30.10,SSE,158,3.5,3.5,2,0.00,CLR,,0.00,WeatherDisplay:10.37,2013-03-15 19:30:00,
2013-03-15 12:35:00,0.0,-69.2,30.10,South,182,3.5,3.5,2,0.00,CLR,,0.00,WeatherDisplay:10.37,2013-03-15 19:35:00,
2013-03-15 12:40:00,0.0,-69.2,30.09,SSW,200,6.9,6.9,2,0.00,CLR,,0.00,WeatherDisplay:10.37,2013-03-15 19:40:00,
2013-03-15 12:45:00,0.0,-69.2,30.10,WNW,288,6.9,6.9,2,0.00,CLR,,0.00,WeatherDisplay:10.37,2013-03-15 19:45:00,
2013-03-15 12:50:00,0.0,-69.2,30.09,South,178,5.8,5.8,2,0.00,CLR,,0.00,WeatherDisplay:10.37,2013-03-15 19:50:00,
2013-03-15 12:55:00,0.0,-69.2,30.09,SE,136,6.9,6.9,2,0.00,CLR,,0.00,WeatherDisplay:10.37,2013-03-15 19:55:00,
2013-03-15 13:00:00,0.0,-69.2,30.09,ESE,123,4.7,4.7,2,0.00,CLR,,0.00,WeatherDisplay:10.37,2013-03-15 20:00:00,
2013-03-15 13:05:00,0.0,-69.2,30.09,SSE,154,5.8,5.8,2,0.00,CLR,,0.00,WeatherDisplay:10.37,2013-03-15 20:05:00,
2013-03-15 13:10:00,0.0,-69.2,30.09,SW,215,5.3,5.3,2,0.00,CLR,,0.00,WeatherDisplay:10.37,2013-03-15 20:10:00,
2013-03-15 13:15:00,0.0,-69.2,30.08,SSE,147,5.2,5.2,2,0.00,CLR,,0.00,WeatherDisplay:10.37,2013-03-15 20:15:00,
2013-03-15 13:20:00,0.0,-69.2,30.08,South,181,5.8,5.8,2,0.00,CLR,,0.00,WeatherDisplay:10.37,2013-03-15 20:20:00,
2013-03-15 13:25:00,0.0,-69.2,30.08,SSW,203,8.1,8.1,2,0.00,CLR,,0.00,WeatherDisplay:10.37,2013-03-15 20:25:00,
2013-03-15 13:30:00,0.0,-69.2,30.08,SE,126,5.8,5.8,2,0.00,CLR,,0.00,WeatherDisplay:10.37,2013-03-15 20:30:00,
2013-03-15 13:35:00,0.0,-69.2,30.08,ENE,75,5.8,5.8,2,0.00,CLR,,0.00,WeatherDisplay:10.37,2013-03-15 20:35:00,
2013-03-15 13:40:00,0.0,-69.2,30.08,South,188,6.9,6.9,2,0.00,CLR,,0.00,WeatherDisplay:10.37,2013-03-15 20:40:00,
2013-03-15 13:45:00,0.0,-69.2,30.08,SE,134,2.3,2.3,2,0.00,CLR,,0.00,WeatherDisplay:10.37,2013-03-15 20:45:00,
2013-03-15 13:50:00,0.0,-69.2,30.08,SSW,193,5.8,5.8,2,0.00,CLR,,0.00,WeatherDisplay:10.37,2013-03-15 20:50:00,
2013-03-15 13:55:00,0.0,-69.2,30.08,ESE,109,5.8,5.8,2,0.00,CLR,,0.00,WeatherDisplay:10.37,2013-03-15 20:55:00,
2013-03-15 14:00:00,0.0,-69.2,30.08,SSW,195,6.3,6.3,2,0.00,CLR,,0.00,WeatherDisplay:10.37,2013-03-15 21:00:00,
2013-03-15 14:05:00,0.0,-69.2,30.08,SSW,198,3.5,3.5,2,0.00,CLR,,0.00,WeatherDisplay:10.37,2013-03-15 21:05:00,
2013-03-15 14:10:00,0.0,-69.2,30.07,SSW,199,4.6,4.6,2,0.00,CLR,,0.00,WeatherDisplay:10.37,2013-03-15 21:10:00,
2013-03-15 14:15:00,0.0,-69.2,30.07,SSE,164,5.8,5.8,2,0.00,CLR,,0.00,WeatherDisplay:10.37,2013-03-15 21:15:00,
2013-03-15 14:20:00,0.0,-69.2,30.07,NNE,21,2.3,2.3,2,0.00,CLR,,0.00,WeatherDisplay:10.37,2013-03-15 21:20:00,
2013-03-15 14:25:00,0.0,-69.2,30.07,WSW,253,3.5,3.5,2,0.00,CLR,,0.00,WeatherDisplay:10.37,2013-03-15 21:25:00,
2013-03-15 14:30:00,0.0,-69.2,30.07,West,281,5.8,5.8,2,0.00,CLR,,0.00,WeatherDisplay:10.37,2013-03-15 21:30:00,
2013-03-15 14:35:00,0.0,-69.2,30.06,NW,309,3.5,3.5,2,0.00,CLR,,0.00,WeatherDisplay:10.37,2013-03-15 21:35:00,
2013-03-15 14:40:00,0.0,-69.2,30.06,WSW,243,2.3,2.3,2,0.00,CLR,,0.00,WeatherDisplay:10.37,2013-03-15 21:40:00,
2013-03-15 14:45:00,0.0,-69.2,30.06,WNW,282,2.3,2.3,2,0.00,CLR,,0.00,WeatherDisplay:10.37,2013-03-15 21:45:00,
2013-03-15 14:50:00,0.0,-69.2,30.06,SW,236,2.0,0.0,2,0.00,CLR,,0.00,WeatherDisplay:10.37,2013-03-15 21:50:00,
2013-03-15 14:55:00,0.0,-69.2,30.06,NNW,344,2.3,2.3,2,0.00,CLR,,0.00,WeatherDisplay:10.37,2013-03-15 21:55:00,
2013-03-15 15:00:00,0.0,-69.2,30.06,SW,236,3.5,3.5,2,0.00,CLR,,0.00,WeatherDisplay:10.37,2013-03-15 22:00:00,
2013-03-15 15:05:00,0.0,-69.2,30.06,NW,309,3.5,3.5,2,0.00,CLR,,0.00,WeatherDisplay:10.37,2013-03-15 22:05:00,
2013-03-15 15:10:00,0.0,-69.2,30.06,NNW,329,6.9,6.9,2,0.00,CLR,,0.00,WeatherDisplay:10.37,2013-03-15 22:10:00,
2013-03-15 15:15:00,0.0,-69.2,30.05,WNW,298,5.8,5.8,2,0.00,CLR,,0.00,WeatherDisplay:10.37,2013-03-15 22:15:00,
2013-03-15 15:20:00,0.0,-69.2,30.05,NW,306,2.9,2.9,2,0.00,CLR,,0.00,WeatherDisplay:10.37,2013-03-15 22:20:00,
2013-03-15 15:25:00,0.0,-69.2,30.05,WNW,292,3.5,3.5,2,0.00,CLR,,0.00,WeatherDisplay:10.37,2013-03-15 22:25:00,
2013-03-15 15:30:00,0.0,-69.2,30.05,NNE,21,4.8,4.8,2,0.00,CLR,,0.00,WeatherDisplay:10.37,2013-03-15 22:30:00,
2013-03-15 15:35:00,0.0,-69.2,30.05,NE,45,5.8,5.8,2,0.00,CLR,,0.00,WeatherDisplay:10.37,2013-03-15 22:35:00,
2013-03-15 15:40:00,0.0,-69.2,30.05,NNE,16,3.5,3.5,2,0.00,CLR,,0.00,WeatherDisplay:10.37,2013-03-15 22:40:00,
2013-03-15 15:45:00,0.0,-69.2,30.05,NE,41,3.5,3.5,2,0.00,CLR,,0.00,WeatherDisplay:10.37,2013-03-15 22:45:00,
2013-03-15 15:50:00,0.0,-69.2,30.05,ESE,110,3.5,3.5,2,0.00,CLR,,0.00,WeatherDisplay:10.37,2013-03-15 22:50:00,
2013-03-15 15:55:00,0.0,-69.2,30.05,ESE,123,4.6,4.6,2,0.00,CLR,,0.00,WeatherDisplay:10.37,2013-03-15 22:55:00,
2013-03-15 16:00:00,0.0,-69.2,30.05,ESE,114,3.5,3.5,2,0.00,CLR,,0.00,WeatherDisplay:10.37,2013-03-15 23:00:00,
2013-03-15 16:05:00,0.0,-69.2,30.05,NNE,32,1.2,1.2,2,0.00,CLR,,0.00,WeatherDisplay:10.37,2013-03-15 23:05:00,
2013-03-15 16:10:00,0.0,-69.2,30.05,SSE,158,0.0,0.0,2,0.00,CLR,,0.00,WeatherDisplay:10.37,2013-03-15 23:10:00,
2013-03-15 16:15:00,0.0,-69.2,30.05,North,11,0.0,0.0,2,0.00,CLR,,0.00,WeatherDisplay:10.37,2013-03-15 23:15:00,
2013-03-15 16:20:00,0.0,-69.2,30.05,West,272,2.3,2.3,2,0.00,CLR,,0.00,WeatherDisplay:10.37,2013-03-15 23:20:00,
2013-03-15 16:25:00,0.0,-69.2,30.05,WNW,298,1.9,1.9,2,0.00,CLR,,0.00,WeatherDisplay:10.37,2013-03-15 23:25:00,
2013-03-15 16:30:00,0.0,-69.2,30.05,WSW,237,0.7,0.7,2,0.00,CLR,,0.00,WeatherDisplay:10.37,2013-03-15 23:30:00,
2013-03-15 16:35:00,0.0,-69.2,30.04,West,260,0.0,0.0,2,0.00,CLR,,0.00,WeatherDisplay:10.37,2013-03-15 23:35:00,
2013-03-15 16:40:00,0.0,-69.2,30.04,West,260,0.0,0.0,2,0.00,CLR,,0.00,WeatherDisplay:10.37,2013-03-15 23:40:00,
2013-03-15 16:45:00,0.0,-69.2,30.04,SW,234,2.5,2.5,2,0.00,CLR,,0.00,WeatherDisplay:10.37,2013-03-15 23:45:00,
2013-03-15 16:50:00,0.0,-69.2,30.04,South,184,2.3,2.3,2,0.00,CLR,,0.00,WeatherDisplay:10.37,2013-03-15 23:50:00,
2013-03-15 16:55:00,0.0,-69.2,30.04,SSW,192,2.1,2.1,2,0.00,CLR,,0.00,WeatherDisplay:10.37,2013-03-15 23:55:00,
2013-03-15 17:00:00,0.0,-69.2,30.04,West,268,3.5,3.5,2,0.00,CLR,,0.00,WeatherDisplay:10.37,2013-03-16 00:00:00,
2013-03-15 17:05:00,0.0,-69.2,30.04,WSW,257,1.2,0.0,2,0.00,CLR,,0.00,WeatherDisplay:10.37,2013-03-16 00:05:00,
2013-03-15 17:10:00,0.0,-69.2,30.04,WNW,284,2.3,2.3,2,0.00,CLR,,0.00,WeatherDisplay:10.37,2013-03-16 00:10:00,
2013-03-15 17:15:00,0.0,-69.2,30.04,NW,304,4.6,4.6,2,0.00,CLR,,0.00,WeatherDisplay:10.37,2013-03-16 00:15:00,
2013-03-15 17:20:00,0.0,-69.2,30.04,NNW,336,2.3,2.3,2,0.00,CLR,,0.00,WeatherDisplay:10.37,2013-03-16 00:20:00,
2013-03-15 17:25:00,0.0,-69.2,30.04,WNW,288,1.2,1.2,2,0.00,CLR,,0.00,WeatherDisplay:10.37,2013-03-16 00:25:00,
2013-03-15 17:30:00,0.0,-69.2,30.04,WNW,288,0.0,0.0,2,0.00,CLR,,0.00,WeatherDisplay:10.37,2013-03-16 00:30:00,
2013-03-15 17:35:00,0.0,-69.2,30.04,WNW,288,0.0,0.0,2,0.00,CLR,,0.00,WeatherDisplay:10.37,2013-03-16 00:35:00,
2013-03-15 17:40:00,0.0,-69.2,30.04,WNW,288,0.0,0.0,2,0.00,CLR,,0.00,WeatherDisplay:10.37,2013-03-16 00:40:00,
2013-03-15 17:45:00,0.0,-69.2,30.04,WNW,288,0.0,0.0,2,0.00,CLR,,0.00,WeatherDisplay:10.37,2013-03-16 00:45:00,
2013-03-15 17:50:00,0.0,-69.2,30.04,WNW,288,0.0,0.0,2,0.00,CLR,,0.00,WeatherDisplay:10.37,2013-03-16 00:50:00,
2013-03-15 17:55:00,0.0,-69.2,30.04,WNW,288,0.0,0.0,2,0.00,CLR,,0.00,WeatherDisplay:10.37,2013-03-16 00:55:00,
2013-03-15 18:00:00,0.0,-69.2,30.04,WNW,296,2.4,2.4,2,0.00,CLR,,0.00,WeatherDisplay:10.37,2013-03-16 01:00:00,
2013-03-15 18:05:00,0.0,-69.2,30.04,WNW,294,6.9,6.9,2,0.00,CLR,,0.00,WeatherDisplay:10.37,2013-03-16 01:05:00,
2013-03-15 18:10:00,0.0,-69.2,30.04,WNW,291,6.9,6.9,2,0.00,CLR,,0.00,WeatherDisplay:10.37,2013-03-16 01:10:00,
2013-03-15 18:15:00,0.0,-69.2,30.04,NW,304,6.9,6.9,2,0.00,CLR,,0.00,WeatherDisplay:10.37,2013-03-16 01:15:00,
2013-03-15 18:20:00,0.0,-69.2,30.04,NW,304,4.6,4.6,2,0.00,CLR,,0.00,WeatherDisplay:10.37,2013-03-16 01:20:00,
2013-03-15 18:25:00,0.0,-69.2,30.04,WNW,291,5.8,5.8,2,0.00,CLR,,0.00,WeatherDisplay:10.37,2013-03-16 01:25:00,
2013-03-15 18:30:00,0.0,-69.2,30.03,NW,304,6.9,6.9,2,0.00,CLR,,0.00,WeatherDisplay:10.37,2013-03-16 01:30:00,
2013-03-15 18:35:00,0.0,-69.2,30.04,WNW,299,4.6,4.6,2,0.00,CLR,,0.00,WeatherDisplay:10.37,2013-03-16 01:35:00,
2013-03-15 18:40:00,0.0,-69.2,30.03,NW,320,4.6,4.6,2,0.00,CLR,,0.00,WeatherDisplay:10.37,2013-03-16 01:40:00,
2013-03-15 18:45:00,0.0,-69.2,30.03,West,267,3.5,3.5,2,0.00,CLR,,0.00,WeatherDisplay:10.37,2013-03-16 01:45:00,
2013-03-15 18:50:00,0.0,-69.2,30.03,NW,326,5.8,5.8,2,0.00,CLR,,0.00,WeatherDisplay:10.37,2013-03-16 01:50:00,
2013-03-15 18:55:00,0.0,-69.2,30.03,WNW,288,4.6,4.6,2,0.00,CLR,,0.00,WeatherDisplay:10.37,2013-03-16 01:55:00,
2013-03-15 19:00:00,0.0,-69.2,30.04,NW,309,3.5,3.5,2,0.00,CLR,,0.00,WeatherDisplay:10.37,2013-03-16 02:00:00,
2013-03-15 19:05:00,0.0,-69.2,30.04,NW,309,2.3,2.3,2,0.00,CLR,,0.00,WeatherDisplay:10.37,2013-03-16 02:05:00,
2013-03-15 19:10:00,0.0,-69.2,30.04,WNW,294,3.5,3.5,2,0.00,CLR,,0.00,WeatherDisplay:10.37,2013-03-16 02:10:00,
2013-03-15 19:15:00,0.0,-69.2,30.04,West,278,1.2,1.2,2,0.00,CLR,,0.00,WeatherDisplay:10.37,2013-03-16 02:15:00,
2013-03-15 19:20:00,0.0,-69.2,30.04,WNW,287,2.3,2.3,2,0.00,CLR,,0.00,WeatherDisplay:10.37,2013-03-16 02:20:00,
2013-03-15 19:25:00,0.0,-69.2,30.04,NNW,332,2.5,2.5,2,0.00,CLR,,0.00,WeatherDisplay:10.37,2013-03-16 02:25:00,
2013-03-15 19:30:00,0.0,-69.2,30.04,West,277,2.3,2.3,2,0.00,CLR,,0.00,WeatherDisplay:10.37,2013-03-16 02:30:00,
2013-03-15 19:35:00,0.0,-69.2,30.04,WNW,302,2.3,2.3,2,0.00,CLR,,0.00,WeatherDisplay:10.37,2013-03-16 02:35:00,
2013-03-15 19:40:00,0.0,-69.2,30.04,West,277,4.6,4.6,2,0.00,CLR,,0.00,WeatherDisplay:10.37,2013-03-16 02:40:00,
2013-03-15 19:45:00,0.0,-69.2,30.04,WNW,282,6.9,6.9,2,0.00,CLR,,0.00,WeatherDisplay:10.37,2013-03-16 02:45:00,
2013-03-15 19:50:00,0.0,-69.2,30.04,West,268,4.6,4.6,2,0.00,CLR,,0.00,WeatherDisplay:10.37,2013-03-16 02:50:00,
2013-03-15 19:55:00,0.0,-69.2,30.04,WNW,282,3.9,3.9,2,0.00,CLR,,0.00,WeatherDisplay:10.37,2013-03-16 02:55:00,
2013-03-15 20:00:00,0.0,-69.2,30.04,WNW,292,4.6,4.6,2,0.00,CLR,,0.00,WeatherDisplay:10.37,2013-03-16 03:00:00,
2013-03-15 20:05:00,0.0,-69.2,30.04,West,274,5.6,5.6,2,0.00,CLR,,0.00,WeatherDisplay:10.37,2013-03-16 03:05:00,
2013-03-15 20:10:00,0.0,-69.2,30.04,WSW,241,2.6,2.6,2,0.00,CLR,,0.00,WeatherDisplay:10.37,2013-03-16 03:10:00,
2013-03-15 20:15:00,0.0,-69.2,30.04,SW,232,3.5,3.5,2,0.00,CLR,,0.00,WeatherDisplay:10.37,2013-03-16 03:15:00,
2013-03-15 20:20:00,0.0,-69.2,30.04,WNW,288,2.3,2.3,2,0.00,CLR,,0.00,WeatherDisplay:10.37,2013-03-16 03:20:00,
2013-03-15 20:25:00,0.0,-69.2,30.05,NW,311,2.3,2.3,2,0.00,CLR,,0.00,WeatherDisplay:10.37,2013-03-16 03:25:00,
2013-03-15 20:30:00,0.0,-69.2,30.05,WNW,285,0.0,0.0,2,0.00,CLR,,0.00,WeatherDisplay:10.37,2013-03-16 03:30:00,
2013-03-15 20:35:00,0.0,-69.2,30.05,WNW,285,0.0,0.0,2,0.00,CLR,,0.00,WeatherDisplay:10.37,2013-03-16 03:35:00,
2013-03-15 20:40:00,0.0,-69.2,30.05,NW,326,2.3,2.3,2,0.00,CLR,,0.00,WeatherDisplay:10.37,2013-03-16 03:40:00,
2013-03-15 20:45:00,0.0,-69.2,30.05,West,275,3.5,3.5,2,0.00,CLR,,0.00,WeatherDisplay:10.37,2013-03-16 03:45:00,
2013-03-15 20:50:00,0.0,-69.2,30.05,WNW,289,3.5,3.5,2,0.00,CLR,,0.00,WeatherDisplay:10.37,2013-03-16 03:50:00,
2013-03-15 20:55:00,0.0,-69.2,30.05,WNW,299,0.0,0.0,2,0.00,CLR,,0.00,WeatherDisplay:10.37,2013-03-16 03:55:00,
2013-03-15 21:00:00,0.0,-69.2,30.05,WNW,299,0.0,0.0,2,0.00,CLR,,0.00,WeatherDisplay:10.37,2013-03-16 04:00:00,
2013-03-15 21:05:00,0.0,-69.2,30.05,WNW,299,0.0,0.0,2,0.00,CLR,,0.00,WeatherDisplay:10.37,2013-03-16 04:05:00,
2013-03-15 21:10:00,0.0,-69.2,30.05,WNW,299,0.0,0.0,2,0.00,CLR,,0.00,WeatherDisplay:10.37,2013-03-16 04:10:00,
2013-03-15 21:15:00,0.0,-69.2,30.05,WNW,299,0.0,0.0,2,0.00,CLR,,0.00,WeatherDisplay:10.37,2013-03-16 04:15:00,
2013-03-15 21:20:00,0.0,-69.2,30.05,SSW,199,1.2,1.2,2,0.00,CLR,,0.00,WeatherDisplay:10.37,2013-03-16 04:20:00,
2013-03-15 21:25:00,0.0,-69.2,30.05,SSW,199,0.0,0.0,2,0.00,CLR,,0.00,WeatherDisplay:10.37,2013-03-16 04:25:00,
2013-03-15 21:30:00,0.0,-69.2,30.06,SSW,199,0.0,0.0,2,0.00,CLR,,0.00,WeatherDisplay:10.37,2013-03-16 04:30:00,
2013-03-15 21:35:00,0.0,-69.2,30.05,SSW,199,0.0,0.0,2,0.00,CLR,,0.00,WeatherDisplay:10.37,2013-03-16 04:35:00,
2013-03-15 21:40:00,0.0,-69.2,30.05,SSW,199,0.0,0.0,2,0.00,CLR,,0.00,WeatherDisplay:10.37,2013-03-16 04:40:00,
2013-03-15 21:45:00,0.0,-69.2,30.05,SSW,199,0.0,0.0,2,0.00,CLR,,0.00,WeatherDisplay:10.37,2013-03-16 04:45:00,
2013-03-15 21:50:00,0.0,-69.2,30.06,SSW,199,0.0,0.0,2,0.00,CLR,,0.00,WeatherDisplay:10.37,2013-03-16 04:50:00,
2013-03-15 21:55:00,0.0,-69.2,30.06,ESE,116,0.0,0.0,2,0.00,CLR,,0.00,WeatherDisplay:10.37,2013-03-16 04:55:00,
2013-03-15 22:00:00,0.0,-69.2,30.06,ESE,116,0.0,0.0,2,0.00,CLR,,0.00,WeatherDisplay:10.37,2013-03-16 05:00:00,
2013-03-15 22:05:00,0.0,-69.2,30.06,East,100,3.5,3.5,2,0.00,CLR,,0.00,WeatherDisplay:10.37,2013-03-16 05:05:00,
2013-03-15 22:10:00,0.0,-69.2,30.06,ENE,61,0.0,0.0,2,0.00,CLR,,0.00,WeatherDisplay:10.37,2013-03-16 05:10:00,
2013-03-15 22:15:00,0.0,-69.2,30.06,NE,52,0.0,0.0,2,0.00,CLR,,0.00,WeatherDisplay:10.37,2013-03-16 05:15:00,
2013-03-15 22:20:00,0.0,-69.2,30.06,East,89,1.0,2.0,2,0.00,CLR,CLR,0.00,WeatherDisplay:10.37,2013-03-16 05:20:00,
2013-03-15 22:33:00,0.0,-69.2,30.06,North,0,1.2,0.0,2,0.00,CLR,,0.00,WeatherDisplay:10.37,2013-03-16 05:33:00,
2013-03-15 22:38:00,0.0,-69.2,30.06,North,0,1.2,0.0,2,0.00,CLR,,0.00,WeatherDisplay:10.37,2013-03-16 05:38:00,
2013-03-15 22:43:00,0.0,-69.2,30.06,North,0,0.0,0.0,2,0.00,CLR,,0.00,WeatherDisplay:10.37,2013-03-16 05:43:00,
2013-03-15 22:48:00,0.0,-69.2,30.06,SE,131,0.0,0.0,2,0.00,CLR,,0.00,WeatherDisplay:10.37,2013-03-16 05:48:00,
2013-03-15 22:53:00,0.0,-69.2,30.06,SE,131,0.0,0.0,2,0.00,CLR,,0.00,WeatherDisplay:10.37,2013-03-16 05:53:00,
2013-03-15 22:58:00,0.0,-69.2,30.06,SE,131,0.0,0.0,2,0.00,CLR,,0.00,WeatherDisplay:10.37,2013-03-16 05:58:00,
2013-03-15 23:03:00,0.0,-69.2,30.06,South,184,1.4,1.4,2,0.00,CLR,,0.00,WeatherDisplay:10.37,2013-03-16 06:03:00,
2013-03-15 23:08:00,0.0,-69.2,30.06,South,185,0.0,0.0,2,0.00,CLR,,0.00,WeatherDisplay:10.37,2013-03-16 06:08:00,
2013-03-15 23:13:00,0.0,-69.2,30.06,South,185,0.0,0.0,2,0.00,CLR,,0.00,WeatherDisplay:10.37,2013-03-16 06:13:00,
2013-03-15 23:18:00,0.0,-69.2,30.06,South,185,0.0,0.0,2,0.00,CLR,,0.00,WeatherDisplay:10.37,2013-03-16 06:18:00,
2013-03-15 23:23:00,0.0,-69.2,30.06,South,185,0.0,0.0,2,0.00,CLR,,0.00,WeatherDisplay:10.37,2013-03-16 06:23:00,
2013-03-15 23:28:00,0.0,-69.2,30.06,South,185,0.0,0.0,2,0.00,CLR,,0.00,WeatherDisplay:10.37,2013-03-16 06:28:00,
2013-03-15 23:33:00,0.0,-69.2,30.06,South,185,0.0,0.0,2,0.00,CLR,,0.00,WeatherDisplay:10.37,2013-03-16 06:33:00,
2013-03-15 23:38:00,0.0,-69.2,30.06,South,185,0.0,0.0,2,0.00,CLR,,0.00,WeatherDisplay:10.37,2013-03-16 06:38:00,
2013-03-15 23:43:00,0.0,-69.2,30.06,South,185,0.0,0.0,2,0.00,CLR,,0.00,WeatherDisplay:10.37,2013-03-16 06:43:00,
2013-03-15 23:48:00,0.0,-69.2,30.06,NW,326,0.0,0.0,2,0.00,CLR,,0.00,WeatherDisplay:10.37,2013-03-16 06:48:00,
2013-03-15 23:53:00,0.0,-69.2,30.06,NW,326,0.0,0.0,2,0.00,CLR,,0.00,WeatherDisplay:10.37,2013-03-16 06:53:00,
2013-03-15 23:58:00,0.0,-69.2,30.06,NW,326,0.0,0.0,2,0.00,CLR,,0.00,WeatherDisplay:10.37,2013-03-16 06:58:00,